Time,TemperatureF,DewpointF,PressureIn,WindDirection,WindDirectionDegrees,WindSpeedMPH,WindSpeedGustMPH,Humidity,HourlyPrecipIn,Conditions,Clouds,dailyrainin,SoftwareType,DateUTC
2013-02-11 00:02:00,9.0,4.0,28.05,ENE,60,1.0,2.0,81,0.00,,,0.01,,2013-02-11 05:02:00,
2013-02-11 00:12:00,9.0,5.0,28.04,ENE,64,1.0,2.0,82,0.00,,,0.01,,2013-02-11 05:12:00,
2013-02-11 00:22:00,9.0,5.0,28.04,ENE,64,1.0,2.0,82,0.00,,,0.01,,2013-02-11 05:22:00,
2013-02-11 00:32:00,8.0,4.0,28.04,ENE,60,0.0,1.0,82,0.00,,,0.01,,2013-02-11 05:32:00,
2013-02-11 00:42:00,8.0,4.0,28.04,ENE,60,0.0,1.0,82,0.00,,,0.01,,2013-02-11 05:42:00,
2013-02-11 00:53:00,9.0,5.0,28.03,ENE,58,2.0,3.0,82,0.00,,,0.01,,2013-02-11 05:53:00,
2013-02-11 01:02:00,9.0,4.0,28.03,ENE,61,0.0,2.0,80,0.00,,,0.01,,2013-02-11 06:02:00,
2013-02-11 01:12:00,9.0,4.0,28.03,ENE,61,0.0,2.0,80,0.00,,,0.01,,2013-02-11 06:12:00,
2013-02-11 01:22:00,9.0,4.0,28.01,ENE,61,0.0,1.0,80,0.00,,,0.01,,2013-02-11 06:22:00,
2013-02-11 01:32:00,8.0,3.0,28.01,ENE,60,0.0,0.0,80,0.00,,,0.01,,2013-02-11 06:32:00,
2013-02-11 01:42:00,8.0,3.0,28.01,ENE,60,0.0,1.0,81,0.00,,,0.01,,2013-02-11 06:42:00,
2013-02-11 01:52:00,8.0,3.0,28.01,ENE,60,0.0,1.0,81,0.00,,,0.01,,2013-02-11 06:52:00,
2013-02-11 02:01:00,8.0,4.0,28.00,WSW,255,0.0,1.0,82,0.00,,,0.01,,2013-02-11 07:01:00,
2013-02-11 02:12:00,8.0,4.0,28.00,WSW,255,0.0,1.0,82,0.00,,,0.01,,2013-02-11 07:12:00,
2013-02-11 02:22:00,8.0,4.0,28.00,WSW,255,0.0,1.0,82,0.00,,,0.01,,2013-02-11 07:22:00,
2013-02-11 02:32:00,8.0,4.0,28.00,WSW,255,0.0,1.0,82,0.00,,,0.01,,2013-02-11 07:32:00,
2013-02-11 02:42:00,9.0,5.0,27.98,ENE,68,1.0,1.0,82,0.00,,,0.01,,2013-02-11 07:42:00,
2013-02-11 02:52:00,9.0,5.0,27.98,ENE,68,1.0,1.0,82,0.00,,,0.01,,2013-02-11 07:52:00,
2013-02-11 03:01:00,9.0,4.0,27.98,ENE,69,1.0,2.0,79,0.00,,,0.01,,2013-02-11 08:01:00,
2013-02-11 03:11:00,9.0,4.0,27.98,ENE,66,0.0,1.0,79,0.00,,,0.01,,2013-02-11 08:11:00,
2013-02-11 03:21:00,9.0,4.0,27.98,ENE,66,0.0,1.0,79,0.00,,,0.01,,2013-02-11 08:21:00,
2013-02-11 03:32:00,9.0,4.0,27.97,ENE,66,1.0,2.0,79,0.00,,,0.01,,2013-02-11 08:32:00,
2013-02-11 03:42:00,10.0,5.0,27.96,ENE,68,1.0,2.0,80,0.00,,,0.01,,2013-02-11 08:42:00,
2013-02-11 03:52:00,10.0,5.0,27.96,ENE,68,1.0,2.0,80,0.00,,,0.01,,2013-02-11 08:52:00,
2013-02-11 04:01:00,10.0,5.0,27.96,ENE,68,1.0,2.0,80,0.00,,,0.01,,2013-02-11 09:01:00,
2013-02-11 04:12:00,10.0,5.0,27.96,ENE,68,1.0,2.0,80,0.00,,,0.01,,2013-02-11 09:12:00,
2013-02-11 04:21:00,10.0,5.0,27.94,ESE,117,0.0,1.0,80,0.00,,,0.01,,2013-02-11 09:21:00,
2013-02-11 04:32:00,11.0,7.0,27.93,ESE,117,0.0,0.0,82,0.00,,,0.01,,2013-02-11 09:32:00,
2013-02-11 04:42:00,11.0,7.0,27.93,ESE,117,0.0,0.0,82,0.00,,,0.01,,2013-02-11 09:42:00,
2013-02-11 04:52:00,11.0,7.0,27.93,ESE,117,0.0,0.0,82,0.00,,,0.01,,2013-02-11 09:52:00,
2013-02-11 05:01:00,11.0,7.0,27.93,ESE,117,0.0,0.0,82,0.00,,,0.01,,2013-02-11 10:01:00,
2013-02-11 05:11:00,11.0,7.0,27.93,ESE,117,0.0,0.0,82,0.00,,,0.01,,2013-02-11 10:11:00,
2013-02-11 06:02:00,15.0,9.0,27.90,NNW,341,0.0,2.0,77,0.00,,,0.01,,2013-02-11 11:02:00,
2013-02-11 06:11:00,15.0,9.0,27.90,NNW,341,0.0,2.0,77,0.00,,,0.01,,2013-02-11 11:11:00,
2013-02-11 06:22:00,15.0,9.0,27.90,NNW,341,0.0,2.0,77,0.00,,,0.01,,2013-02-11 11:22:00,
2013-02-11 06:32:00,15.0,9.0,27.90,NNW,341,0.0,2.0,77,0.00,,,0.01,,2013-02-11 11:32:00,
2013-02-11 06:42:00,15.0,9.0,27.90,NNW,341,0.0,2.0,77,0.00,,,0.01,,2013-02-11 11:42:00,
2013-02-11 07:22:00,20.0,8.0,27.86,North,349,0.0,3.0,58,0.00,,,0.01,,2013-02-11 12:22:00,
2013-02-11 07:32:00,21.0,7.0,27.85,ENE,60,1.0,2.0,54,0.00,,,0.01,,2013-02-11 12:32:00,
2013-02-11 07:42:00,22.0,8.0,27.86,NNE,23,0.0,4.0,55,0.00,,,0.01,,2013-02-11 12:42:00,
2013-02-11 07:52:00,22.0,8.0,27.86,NNE,23,0.0,4.0,55,0.00,,,0.01,,2013-02-11 12:52:00,
2013-02-11 08:02:00,21.0,7.0,27.86,NNW,330,1.0,2.0,55,0.00,,,0.01,,2013-02-11 13:02:00,
2013-02-11 08:12:00,23.0,8.0,27.83,ENE,72,2.0,4.0,51,0.00,,,0.01,,2013-02-11 13:12:00,
2013-02-11 08:22:00,23.0,8.0,27.83,ENE,72,2.0,4.0,51,0.00,,,0.01,,2013-02-11 13:22:00,
2013-02-11 08:33:00,24.0,9.0,27.83,East,99,3.0,5.0,52,0.00,,,0.01,,2013-02-11 13:33:00,
2013-02-11 08:42:00,24.0,9.0,27.83,East,99,3.0,5.0,52,0.00,,,0.01,,2013-02-11 13:42:00,
2013-02-11 08:52:00,24.0,9.0,27.81,ENE,68,1.0,4.0,52,0.00,,,0.01,,2013-02-11 13:52:00,
2013-02-11 09:02:00,24.0,11.0,27.81,ENE,65,2.0,3.0,58,0.00,,,0.01,,2013-02-11 14:02:00,
2013-02-11 09:12:00,24.0,11.0,27.81,ENE,65,2.0,3.0,58,0.00,,,0.01,,2013-02-11 14:12:00,
2013-02-11 09:22:00,24.0,11.0,27.81,ENE,65,2.0,3.0,58,0.00,,,0.01,,2013-02-11 14:22:00,
2013-02-11 09:33:00,23.0,18.0,27.80,East,84,4.0,6.0,80,0.00,,,0.01,,2013-02-11 14:33:00,
2013-02-11 09:42:00,23.0,18.0,27.80,East,84,4.0,6.0,80,0.00,,,0.01,,2013-02-11 14:42:00,
2013-02-11 09:53:00,23.0,18.0,27.80,East,84,4.0,6.0,80,0.00,,,0.01,,2013-02-11 14:53:00,
2013-02-11 10:02:00,23.0,18.0,27.80,East,84,4.0,6.0,80,0.00,,,0.01,,2013-02-11 15:02:00,
2013-02-11 10:11:00,23.0,18.0,27.80,East,84,4.0,6.0,80,0.00,,,0.01,,2013-02-11 15:11:00,
2013-02-11 19:22:00,28.0,27.0,27.41,ESE,103,1.0,1.0,96,0.00,,,0.00,,2013-02-12 00:22:00,
2013-02-11 19:32:00,28.0,27.0,27.41,ESE,103,1.0,1.0,96,0.00,,,0.00,,2013-02-12 00:32:00,
2013-02-11 19:42:00,28.0,27.0,27.41,ESE,103,1.0,1.0,96,0.00,,,0.00,,2013-02-12 00:42:00,
2013-02-11 19:52:00,28.0,27.0,27.40,SE,134,0.0,2.0,95,0.00,,,0.00,,2013-02-12 00:52:00,
2013-02-11 20:02:00,28.0,27.0,27.39,SE,133,0.0,1.0,96,0.00,,,0.00,,2013-02-12 01:02:00,
2013-02-11 20:12:00,28.0,27.0,27.39,SE,133,0.0,1.0,96,0.00,,,0.00,,2013-02-12 01:12:00,
2013-02-11 20:22:00,28.0,27.0,27.39,ESE,117,0.0,2.0,96,0.00,,,0.00,,2013-02-12 01:22:00,
2013-02-11 20:32:00,28.0,27.0,27.39,ESE,117,0.0,2.0,96,0.00,,,0.00,,2013-02-12 01:32:00,
2013-02-11 20:42:00,28.0,27.0,27.39,ESE,117,0.0,2.0,96,0.00,,,0.00,,2013-02-12 01:42:00,
2013-02-11 20:52:00,28.0,27.0,27.39,ESE,117,0.0,1.0,96,0.00,,,0.00,,2013-02-12 01:52:00,
2013-02-11 21:02:00,28.0,27.0,27.39,East,86,0.0,0.0,96,0.00,,,0.00,,2013-02-12 02:02:00,
2013-02-11 21:12:00,28.0,27.0,27.39,East,86,0.0,0.0,96,0.00,,,0.00,,2013-02-12 02:12:00,
2013-02-11 21:22:00,28.0,27.0,27.39,West,273,0.0,1.0,96,0.00,,,0.00,,2013-02-12 02:22:00,
2013-02-11 21:32:00,28.0,27.0,27.39,SSE,153,0.0,1.0,96,0.00,,,0.00,,2013-02-12 02:32:00,
2013-02-11 21:42:00,28.0,27.0,27.39,SSE,153,0.0,1.0,96,0.00,,,0.00,,2013-02-12 02:42:00,
2013-02-11 21:53:00,29.0,28.0,27.39,ESE,103,0.0,1.0,96,0.00,,,0.00,,2013-02-12 02:53:00,
2013-02-11 22:02:00,29.0,28.0,27.37,ENE,73,2.0,2.0,96,0.00,,,0.00,,2013-02-12 03:02:00,
2013-02-11 22:11:00,29.0,28.0,27.37,ENE,73,2.0,2.0,96,0.00,,,0.00,,2013-02-12 03:11:00,
2013-02-11 22:21:00,29.0,28.0,27.37,ENE,73,2.0,2.0,96,0.00,,,0.00,,2013-02-12 03:21:00,
2013-02-11 22:32:00,29.0,28.0,27.38,ESE,109,1.0,2.0,96,0.00,,,0.00,,2013-02-12 03:32:00,
2013-02-11 22:42:00,29.0,28.0,27.38,East,82,1.0,3.0,96,0.00,,,0.00,,2013-02-12 03:42:00,
2013-02-11 22:52:00,29.0,28.0,27.38,East,82,1.0,3.0,96,0.00,,,0.00,,2013-02-12 03:52:00,
2013-02-11 23:01:00,29.0,28.0,27.37,ENE,68,1.0,2.0,96,0.00,,,0.00,,2013-02-12 04:01:00,
2013-02-11 23:11:00,29.0,28.0,27.37,ENE,68,1.0,2.0,96,0.00,,,0.00,,2013-02-12 04:11:00,
2013-02-11 23:21:00,29.0,28.0,27.37,SW,231,0.0,1.0,96,0.00,,,0.00,,2013-02-12 04:21:00,
2013-02-11 23:32:00,29.0,28.0,27.36,WSW,240,0.0,1.0,96,0.00,,,0.00,,2013-02-12 04:32:00,
2013-02-11 23:42:00,29.0,28.0,27.36,WSW,240,0.0,1.0,96,0.00,,,0.00,,2013-02-12 04:42:00,
2013-02-11 23:52:00,28.0,27.0,27.34,NE,47,2.0,3.0,96,0.00,,,0.00,,2013-02-12 04:52:00,